Dewpoint
46 49 51 53 57 58 59 58 57 58 59 59 59 57 57 58 59 58 58 57 56 56 57 55 58 59 57 56 58 56 57 53 53 48 47 48 49 49 47 45 45 46 47
46 49 51 52 54 57 58 58 57 57 58 58 57 57 56 57 55 57 58 56 56 54 54 55 56 57 57 59 59 58 57 55 57 51 52 50 49 49 50 49 48 52 46
46 49 50 52 54 56 57 58 57 57 57 57 57 57 57 57 55 55 57 57 57 56 55 56 58 58 57 58 60 60 59 56 57 57 57 52 49 53 53 53 50 52 50
46 48 50 50 53 55 57 57 57 57 56 57 56 55 54 55 54 54 55 55 59 56 56 57 58 59 58 58 59 59 59 59 57 57 56 57 55 51 50 52 53 53 50
46 48 49 49 51 55 56 57 57 57 57 57 56 55 54 54 55 53 54 56 56 58 55 58 59 58 60 60 61 60 60 60 57 56 57 55 53 54 51 47 50 51 51
44 47 49 49 48 54 56 57 57 57 57 57 57 56 55 54 53 56 53 55 56 57 58 58 58 59 59 61 60 59 59 59 60 57 57 55 52 51 53 52 54 55 55
44 47 47 48 48 51 55 55 56 55 57 57 57 57 56 53 53 55 56 55 56 57 57 58 56 56 56 57 59 58 59 58 59 59 57 56 57 56 56 55 55 54 54
44 46 47 48 48 50 53 54 54 54 56 57 56 57 56 54 53 54 55 56 55 55 56 57 56 56 56 57 57 58 57 59 59 59 58 58 57 57 57 57 54 50 53
42 46 47 48 49 49 52 54 53 53 55 56 57 57 57 56 56 56 57 57 56 53 54 55 56 57 56 56 56 55 56 57 58 60 60 58 59 60 59 57 55 52 50
39 44 47 49 50 50 51 54 53 52 52 55 57 56 56 57 56 56 56 56 57 56 55 55 55 55 55 55 55 53 56 57 58 58 59 59 59 59 59 57 57 56 53
40 43 46 49 50 50 50 52 52 52 52 53 55 56 56 56 57 56 56 56 57 57 56 56 56 55 55 55 55 55 55 55 56 57 58 58 59 59 59 59 57 55 54
40 42 45 48 50 51 51 50 52 52 52 53 53 56 57 57 57 56 57 57 56 57 56 56 55 55 54 55 55 55 54 55 55 56 57 57 57 58 58 55 54 54 53
32 38 44 46 48 50 51 50 51 51 51 51 53 55 57 57 57 57 57 57 57 56 55 54 54 54 55 55 55 55 55 55 55 55 56 57 57 55 55 55 54 53 52
31 33 39 44 47 49 51 51 52 52 51 50 51 53 56 56 57 57 57 57 57 56 55 55 54 55 54 53 54 54 55 55 55 55 57 56 56 54 54 53 52 52 50
28 30 33 39 43 47 49 51 51 52 52 51 50 52 56 56 56 57 57 57 57 56 56 56 56 56 55 53 55 54 55 54 54 56 56 55 54 50 52 53 52 50 47
30 32 33 33 34 41 46 48 51 53 53 53 53 52 54 54 55 57 57 57 57 56 56 56 56 56 54 47 45 50 56 54 55 55 55 54 50 49 45 45 45 46 45
35 35 35 33 36 37 39 46 48 51 53 53 53 53 53 53 55 55 55 55 57 57 57 56 56 56 56 46 44 43 54 55 54 54 56 54 52 47 49 40 38 35 37
40 40 39 37 37 40 38 39 42 48 50 51 52 53 53 53 53 54 54 55 56 56 56 57 57 56 55 44 43 43 54 55 55 55 55 52 45 44 41 37 31 30 31
40 43 44 45 45 45 46 41 38 40 46 50 52 51 53 53 53 53 55 55 56 56 56 56 56 56 56 44 42 44 52 45 40 41 41 40 38 37 36 32 31 31 30
41 44 46 48 49 50 51 49 45 40 40 45 50 51 52 53 53 55 55 56 56 56 55 51 47 42 50 41 42 44 40 36 34 34 35 35 35 34 35 34 31 28 27
41 45 46 47 48 48 49 50 49 50 51 49 48 50 51 53 53 54 56 56 54 46 41 39 38 37 38 38 39 39 36 33 32 32 31 32 33 34 33 32 31 28 29
41 43 45 46 46 46 48 48 47 48 51 52 51 50 50 51 53 52 49 48 44 39 37 35 34 33 34 34 35 34 34 33 30 29 30 31 31 30 30 29 29 28 28
40 41 43 43 43 40 40 41 42 44 45 44 44 43 42 41 41 42 41 39 39 38 35 32 30 29 30 31 32 31 31 31 30 29 29 29 28 28 27 27 28 28 28
36 37 39 38 36 35 35 36 39 39 38 36 36 36 35 35 35 35 36 35 35 34 32 30 28 28 27 28 29 29 30 29 28 28 28 28 27 26 25 26 27 26 25
34 34 34 34 32 32 32 33 35 37 35 33 33 33 32 31 29 29 31 31 32 33 30 29 28 26 25 27 29 28 28 28 27 28 28 27 27 26 26 26 25 23 20
31 30 30 31 30 30 30 31 32 34 34 32 31 31 30 30 28 27 27 30 30 30 29 28 27 28 29 30 30 30 30 30 30 30 28 28 29 27 25 24 21 21 19
Lifted_Index
-1 -0 1 2 2 2 2 2 2 2 2 2 3 3 3 3 4 4 4 3 3 3 4 3 3 3 3 3 2 2 2 2 3 3 3 3 2 2 2 2 2 3 4
-1 -0 1 2 2 2 2 2 2 1 1 2 2 3 3 3 4 4 4 3 3 3 3 3 3 2 2 2 2 1 2 2 2 2 2 2 1 1 1 1 2 2 3
-1 -1 1 2 2 2 2 2 1 1 1 1 2 3 3 3 4 4 4 3 3 3 3 3 2 2 1 1 1 0 1 1 1 1 0 0 -0 -0 0 1 1 2 2
-1 -1 0 1 2 2 2 2 1 1 1 1 2 2 3 3 4 4 4 3 3 3 3 2 2 2 1 1 0 -0 -0 0 0 0 -0 -1 -1 -0 0 0 1 1 2
-1 -1 -0 1 1 1 2 2 1 1 1 1 2 2 2 3 3 4 4 3 3 3 3 2 2 2 1 0 0 0 0 0 0 0 -0 -1 -0 -0 -0 0 0 1 2
-2 -1 -1 0 1 1 1 1 1 2 1 1 2 2 2 3 3 3 3 3 3 3 3 3 3 2 2 1 1 1 1 0 0 0 -0 -0 -0 -0 -0 -0 -0 1 1
-2 -2 -1 -0 1 1 1 1 1 2 2 2 2 2 2 2 3 3 2 3 3 3 2 3 3 3 2 1 1 1 1 1 0 0 -0 -0 -1 -1 -1 -0 0 1 2
-2 -2 -1 -0 0 1 1 1 1 2 2 2 2 2 2 2 2 2 2 2 3 3 3 3 3 2 2 2 1 1 1 1 0 -0 -0 -1 -1 -1 -1 -0 1 2 2
-2 -2 -2 -1 -0 0 1 1 1 1 2 2 2 2 2 2 2 2 2 2 2 3 3 3 2 2 2 2 1 1 1 0 -0 -0 -1 -1 -1 -1 -1 -0 1 2 2
-2 -2 -2 -2 -1 -0 0 0 1 1 1 1 2 2 2 2 2 2 2 2 2 2 2 2 2 2 2 2 2 1 1 0 -0 -0 -1 -1 -1 -1 -1 0 1 1 1
-2 -2 -2 -2 -2 -1 -0 0 0 1 1 1 1 1 1 1 1 1 1 1 1 1 2 2 2 2 2 2 1 1 1 0 0 -0 -0 -1 -1 -0 -0 0 1 1 1
-1 -2 -2 -2 -2 -2 -1 -1 -0 0 0 0 0 0 0 0 0 0 0 1 1 1 1 1 1 1 1 1 1 1 1 1 0 0 -0 -0 0 1 1 1 1 2 2
-1 -1 -2 -2 -3 -2 -2 -1 -1 -0 0 0 -0 -0 -0 -1 -1 -0 -0 0 0 0 1 1 1 1 1 1 1 1 1 0 0 0 0 1 1 2 2 2 2 2 2
-0 -1 -1 -2 -3 -3 -3 -2 -2 -1 -1 -0 -0 -1 -1 -1 -1 -1 -1 -0 -0 0 0 1 1 1 1 1 1 1 0 0 0 0 1 1 2 3 3 3 2 2 1
-0 -0 -1 -1 -2 -2 -3 -3 -3 -2 -2 -1 -1 -1 -2 -2 -1 -1 -1 -1 -1 -0 -0 0 0 0 0 1 1 1 0 0 1 1 1 2 3 3 3 2 1 1 1
0 0 0 -0 -1 -2 -3 -3 -3 -3 -3 -2 -2 -2 -2 -2 -2 -2 -2 -1 -1 -1 -1 -0 -0 -0 0 1 1 1 0 0 1 1 2 2 2 2 2 1 1 1 1
1 1 0 0 -0 -1 -1 -2 -3 -3 -3 -3 -3 -2 -2 -2 -2 -2 -2 -2 -2 -2 -1 -1 -1 -1 -0 0 1 1 1 1 1 1 2 2 1 1 0 0 1 1 2
1 1 1 0 0 -0 -0 -1 -2 -3 -3 -3 -3 -3 -3 -3 -2 -3 -3 -3 -3 -2 -2 -2 -2 -1 -1 -0 0 1 1 1 1 1 1 1 1 -0 -0 0 1 2 3
2 1 1 0 0 -0 -0 -0 -0 -1 -2 -3 -3 -3 -3 -3 -3 -3 -3 -3 -3 -3 -2 -2 -2 -1 -1 -0 -0 0 0 1 1 1 1 1 1 1 1 1 1 3 5
2 1 1 1 1 0 0 -0 -0 -0 -1 -2 -3 -3 -3 -3 -3 -4 -4 -3 -3 -2 -2 -2 -2 -1 -1 -1 -1 -1 -0 -0 0 0 1 1 2 3 4 4 5 6 7
2 1 1 1 1 1 1 0 0 0 0 -1 -2 -3 -3 -3 -4 -4 -4 -3 -2 -2 -2 -2 -1 -1 -1 -1 -1 -1 -1 -1 -0 0 1 3 5 6 8 9 9 10 10
2 2 2 2 2 2 1 1 1 1 1 0 -0 -1 -2 -3 -3 -3 -3 -3 -2 -2 -2 -1 -1 -1 -1 -1 -0 0 0 1 1 2 4 7 8 10 11 12 12 13 13
3 3 2 2 2 2 1 1 1 1 0 0 0 -0 -1 -2 -2 -2 -2 -2 -2 -2 -1 -1 -1 -0 -0 0 1 3 4 4 5 6 8 10 12 13 13 14 14 15 15
3 2 2 2 2 2 2 1 1 1 0 -0 -0 -1 -1 -1 -1 -1 -1 -1 -1 -1 -1 -0 0 1 1 2 4 7 8 9 9 10 11 12 13 14 14 15 16 17 17
2 2 2 2 2 2 2 2 2 2 2 2 1 0 0 0 0 0 0 1 1 2 2 3 3 4 5 7 9 11 12 12 13 13 13 14 14 15 16 16 17 18 19
2 1 1 2 2 3 3 3 3 4 4 4 3 2 1 1 1 0 1 2 3 4 5 6 7 8 10 12 13 14 15 15 15 15 14 14 15 15 16 17 18 19 20